Weather History for KEOE - February, 2013

Change the Weather History Date:

Saturday, February 16, 2013

  Actual Average (KFDW) Record (KFDW)
Temperature  
Mean Temperature 39 °F -  
Max Temperature 46 °F 60 °F 64 °F (2011)
Min Temperature 32 °F 35 °F 26 °F (2015)
Degree Days  
Heating Degree Days 26    
Moisture  
Dew Point 35 °F    
Average Humidity 86    
Maximum Humidity 100    
Minimum Humidity 66    
Precipitation  
Precipitation 0.22 in - - ()
Sea Level Pressure  
Sea Level Pressure 29.97 in    
Wind  
Wind Speed 7 mph (NNW)    
Max Wind Speed 14 mph    
Max Gust Speed 22 mph    
Visibility 9 miles    
Events Rain , Snow , Thunderstorm    
Averages and records for this station are not official NWS values.
T = Trace of Precipitation, MM = Missing Value Source: NWS Daily Summary

Daily Weather History Graph

Daily Weather History Graph

Search for Another Location

Airport or City:

Trip Planner

Search our weather history database for the weather conditions in past years. The results will help you decide how hot, cold, wet, or windy it might be!

Date:

Astronomy

Feb. 16, 2013 Rise Set
Actual Time 7:10 AM EST 6:11 PM EST
Civil Twilight 6:44 AM EST 6:37 PM EST
Nautical Twilight 6:15 AM EST 7:06 PM EST
Astronomical Twilight 5:46 AM EST 7:35 PM EST
Moon 10:41 AM EST (2/16) No Moon Set
Length of Visible Light 11h 52m
Length of Day
11h 01m
Waxing Crescent, 39% of the Moon is Illuminated
Feb 16
Waxing Crescent
Feb 17
First Quarter
Feb 25
Full
Mar 4
Last Quarter
Mar 11
New

Hourly Weather History & Observations

Time (EST) Temp. Windchill Dew Point Humidity Pressure Visibility Wind Dir Wind Speed Gust Speed Precip Events Conditions
12:15 AM 44.6 °F 40.2 °F 35.6 °F 71% 29.98 in 10.0 mi North 8.1 mph - N/A   Scattered Clouds
12:35 AM 46.4 °F 41.9 °F 35.6 °F 66% 29.98 in 10.0 mi North 9.2 mph - N/A   Scattered Clouds
12:55 AM 46.4 °F 41.9 °F 35.6 °F 66% 29.99 in 10.0 mi North 9.2 mph - N/A   Clear
1:15 AM 44.6 °F 40.7 °F 35.6 °F 71% 29.99 in 10.0 mi North 6.9 mph - N/A   Clear
1:35 AM 44.6 °F 40.7 °F 35.6 °F 71% 29.98 in 10.0 mi North 6.9 mph - N/A   Mostly Cloudy
1:55 AM 44.6 °F 42.2 °F 35.6 °F 71% 29.98 in 10.0 mi North 4.6 mph - N/A   Overcast
2:15 AM 44.6 °F 42.2 °F 35.6 °F 71% 29.97 in 10.0 mi NNE 4.6 mph - N/A   Overcast
2:35 AM 44.6 °F 42.2 °F 35.6 °F 71% 29.97 in 10.0 mi North 4.6 mph - N/A   Mostly Cloudy
2:55 AM 44.6 °F 42.2 °F 35.6 °F 71% 29.97 in 10.0 mi North 4.6 mph - N/A   Mostly Cloudy
3:15 AM 44.6 °F 43.1 °F 35.6 °F 71% 29.97 in 10.0 mi North 3.5 mph - N/A   Mostly Cloudy
3:35 AM 44.6 °F 42.2 °F 35.6 °F 71% 29.97 in 10.0 mi North 4.6 mph - N/A   Mostly Cloudy
3:55 AM 44.6 °F 40.7 °F 35.6 °F 71% 29.96 in 10.0 mi North 6.9 mph - N/A   Mostly Cloudy
4:15 AM 42.8 °F 38.0 °F 33.8 °F 70% 29.96 in 10.0 mi North 8.1 mph - N/A   Scattered Clouds
4:55 AM 42.8 °F 37.0 °F 35.6 °F 76% 29.97 in 10.0 mi NNW 10.4 mph - N/A Rain Rain
5:15 AM 41.0 °F 34.3 °F 35.6 °F 81% 29.97 in 10.0 mi North 11.5 mph - N/A Rain Light Rain
5:35 AM 41.0 °F 35.8 °F 37.4 °F 87% 29.97 in 10.0 mi North 8.1 mph - N/A   Light Drizzle
5:55 AM 41.0 °F 36.4 °F 37.4 °F 87% 29.98 in 10.0 mi North 6.9 mph - 0.01 in Rain Light Rain
6:15 AM 41.0 °F 34.7 °F 39.2 °F 93% 29.97 in 10.0 mi NNE 10.4 mph - 0.01 in Rain Rain
6:55 AM 39.2 °F 33.0 °F 39.2 °F 100% 29.97 in 10.0 mi NE 9.2 mph - 0.02 in   Drizzle
7:15 AM 39.2 °F 33.6 °F 39.2 °F 100% 29.97 in 10.0 mi NNE 8.1 mph - 0.02 in Rain Light Rain
7:55 AM 39.2 °F 31.6 °F 39.2 °F 100% 29.97 in 10.0 mi North 12.7 mph - 0.03 in Rain Light Rain
8:15 AM 37.4 °F 32.1 °F 37.4 °F 100% 29.98 in 10.0 mi North 6.9 mph - N/A Rain Light Rain
8:35 AM 37.4 °F 30.8 °F 37.4 °F 100% 30.00 in 7.0 mi NNW 9.2 mph - 0.02 in Rain Rain
8:55 AM 37.4 °F 29.3 °F 37.4 °F 100% 30.00 in 7.0 mi North 12.7 mph 16.1 mph 0.03 in Rain Rain
9:15 AM 35.6 °F 29.2 °F 35.6 °F 100% 30.00 in 7.0 mi North 8.1 mph 17.3 mph 0.02 in Rain Rain
9:55 AM - - - N/A% 30.00 in 1.0 mi Calm Calm - 0.06 in   Unknown
10:15 AM - - - N/A% 29.99 in 1.2 mi ESE 4.6 mph - N/A   Unknown
10:35 AM - - - N/A% 29.98 in 7.0 mi ESE 3.5 mph - 0.03 in   Overcast
12:35 PM - - - N/A% 29.94 in 10.0 mi Calm Calm - 0.01 in   Overcast
1:35 PM 37.4 °F 34.9 °F 37.4 °F 100% 29.91 in 10.0 mi WSW 3.5 mph - N/A   Light Drizzle
1:55 PM 37.4 °F - 37.4 °F 100% 29.90 in 10.0 mi Calm Calm - N/A   Overcast
2:15 PM 39.2 °F - 37.4 °F 93% 29.89 in 10.0 mi Calm Calm - N/A   Overcast
2:35 PM 39.2 °F - 37.4 °F 93% 29.88 in 10.0 mi Calm Calm - N/A   Overcast
2:55 PM 41.0 °F - 37.4 °F 87% 29.87 in 10.0 mi Calm Calm - N/A   Overcast
3:15 PM 39.2 °F 32.5 °F 35.6 °F 87% 29.87 in 10.0 mi West 10.4 mph 16.1 mph N/A Rain Light Rain
3:35 PM 37.4 °F 32.1 °F 35.6 °F 93% 29.86 in 10.0 mi WSW 6.9 mph 11.5 mph N/A Rain , Thunderstorm Light Thunderstorms and Rain
3:55 PM 39.2 °F - 37.4 °F 93% 29.85 in 10.0 mi Calm Calm - N/A   Scattered Clouds
4:15 PM 41.0 °F 34.3 °F 37.4 °F 87% 29.87 in 10.0 mi West 11.5 mph 21.9 mph N/A   Mostly Cloudy
4:55 PM 35.6 °F 26.6 °F 35.6 °F 100% 29.91 in 10.0 mi NW 13.8 mph 20.7 mph 0.03 in   Overcast
5:15 PM 35.6 °F 27.1 °F 35.6 °F 100% 29.93 in 4.0 mi NNW 12.7 mph 21.9 mph N/A Snow Light Snow
5:35 PM 35.6 °F 27.5 °F 35.6 °F 100% 29.94 in 5.0 mi NNW 11.5 mph 19.6 mph N/A Snow Light Snow
5:55 PM 33.8 °F 27.0 °F 33.8 °F 100% 29.95 in 10.0 mi NNW 8.1 mph 18.4 mph N/A   Overcast
6:15 PM 33.8 °F 27.7 °F 33.8 °F 100% 29.95 in 10.0 mi North 6.9 mph - N/A   Overcast
6:55 PM 33.8 °F 29.6 °F 33.8 °F 100% 29.97 in 10.0 mi NW 4.6 mph - N/A   Mostly Cloudy
7:15 PM 33.8 °F 30.8 °F 33.8 °F 100% 29.99 in 10.0 mi WNW 3.5 mph - N/A   Mostly Cloudy
7:35 PM 33.8 °F 27.7 °F 33.8 °F 100% 30.00 in 10.0 mi West 6.9 mph - N/A   Overcast
8:15 PM 35.6 °F 31.7 °F 30.2 °F 81% 30.01 in 10.0 mi WNW 4.6 mph - N/A   Overcast
8:35 PM 33.8 °F 28.6 °F 30.2 °F 87% 30.02 in 10.0 mi West 5.8 mph - N/A   Overcast
8:55 PM 33.8 °F 27.7 °F 28.4 °F 81% 30.03 in 10.0 mi WNW 6.9 mph - N/A   Overcast
9:15 PM 33.8 °F 27.7 °F 28.4 °F 81% 30.04 in 10.0 mi West 6.9 mph - N/A   Overcast
10:15 PM 32.0 °F 27.5 °F 28.4 °F 87% 30.07 in 10.0 mi WNW 4.6 mph - N/A   Clear
10:55 PM 32.0 °F 27.5 °F 28.4 °F 87% 30.08 in 10.0 mi West 4.6 mph - N/A   Clear
11:15 PM 32.0 °F 25.6 °F 26.6 °F 80% 30.08 in 10.0 mi WNW 6.9 mph - N/A   Clear
11:35 PM 32.0 °F 26.4 °F 26.6 °F 80% 30.08 in 10.0 mi West 5.8 mph - N/A   Clear
11:55 PM 32.0 °F 25.6 °F 24.8 °F 75% 30.08 in 10.0 mi WNW 6.9 mph - N/A   Clear